[[{"header":{"parameterUnit":"m.s-1","parameterCategory":1,"la1":30.2991,"la2":30.254,"lo1":-89.0895,"lo2":-89.0444,"dy":0.0017,"dx":0.0017,"nx":28,"ny":28,"refTime":"2025-11-17T03:00:00:Z","depth":0,"parameterNumber":2,"parameterNumberName":"U-component_of_WINDS"},"data":[0,0,0,0,0,0,0,0,0,0,0,0,0,0,0,0,0,0,0,0,0,0,0,0,0,0,0,0,0,0,0,0,0,0,0,0,0,0,0,0,0,0,0,0,0,0,0,0,0,0,0,0,0,0,0,0,0,0,-1.099,-1.0991,0,-1.1026,-1.1026,-1.1027,-1.0991,-1.099,-1.0989,-1.0987,-1.1024,-1.1026,-1.1028,0,0,0,0,0,0,0,0,0,0,0,0,0,-1.0893,-1.0895,-1.099,-1.0991,-1.0991,-1.1026,-1.1026,-1.1027,-1.0992,-1.099,-1.0988,-1.0987,-1.1023,-1.1026,-1.1028,0,0,0,0,0,0,0,0,0,0,0,0,0,-1.0933,-1.0896,-1.099,-1.0978,-1.0977,-1.1026,-1.1026,-1.1027,-1.0992,-1.099,-1.0988,-1.0986,-1.1022,-1.1025,-1.1029,-1.1091,0,0,-1.1039,-1.104,0,0,0,0,0,0,0,0,-1.0931,-1.0937,-1.0979,-1.0979,-1.0978,-1.1002,-1.1005,-1.1049,-1.0993,-1.0986,-1.0987,-1.0985,-1.1018,-1.1022,-1.1033,-1.1093,-1.1095,-1.1039,-1.1041,-1.1043,-1.1044,0,0,0,0,0,0,0,-1.0928,-1.0935,-1.1004,-1.098,-1.0979,-1.0971,-1.0974,-1.1013,-1.1014,-1.0987,-1.0984,-1.0989,-1.1017,-1.103,-1.1034,-1.1095,-1.1039,-1.1042,-1.1044,-1.1046,-1.121,-1.1212,0,0,0,0,0,0,-1.0927,-1.0933,-1.1003,-1.1006,-1.0949,-1.0974,-1.0978,-1.0997,-1.1013,-1.1013,-1.0991,-1.0987,-1.1025,-1.103,-1.1035,-1.1109,-1.1043,-1.1046,-1.1048,-1.1207,-1.121,-1.1213,0,0,0,0,0,0,-1.0925,-1.0933,-1.1002,-1.0969,-1.0977,-1.0978,-1.0999,-1.0998,-1.1011,-1.1016,-1.1016,-1.1003,-1.1024,-1.103,-1.1078,-1.111,-1.1047,-1.1051,-1.1205,-1.1208,-1.1211,-1.1259,0,0,0,0,0,0,-1.0922,-1.0933,-1.0956,-1.0969,-1.0979,-1.1044,-1.1001,-1.1001,-1.1017,-1.1012,-1.1028,-1.1028,-1.1022,-1.1073,-1.1081,-1.1114,-1.1053,-1.1202,-1.1206,-1.121,-1.1254,-1.1264,-1.1271,0,0,0,0,0,-1.0919,-1.0968,-1.0957,-1.0966,-1.1008,-1.1046,-1.1051,-1.1043,-1.1019,-1.1043,-1.1047,-1.1028,-1.1106,-1.1078,-1.1087,-1.1121,-1.1199,-1.1205,-1.121,-1.1251,-1.1262,-1.1271,0,0,0,0,0,0,-1.0958,-1.0969,-1.0958,-1.1013,-1.1029,-1.104,-1.1069,-1.1055,-1.1079,-1.1074,-1.1063,-1.1067,-1.1118,-1.1124,-1.1093,-1.1183,-1.1149,-1.1156,-1.1177,-1.1187,-1.1196,-1.1192,-1.1056,0,0,0,0,0,-1.0973,-1.1003,-1.1011,-1.1059,-1.1068,-1.1067,-1.1084,-1.1077,-1.1093,-1.1099,-1.1106,-1.1123,-1.1151,-1.117,-1.1196,-1.1256,-1.1259,-1.1284,-1.1293,-1.13,-1.1305,-1.1338,-1.1349,-1.123,-1.123,-1.123,0,0,-1.1004,-1.1014,-1.1033,-1.1067,-1.1078,-1.111,-1.1073,-1.1108,-1.1131,-1.1104,-1.115,-1.1156,-1.1174,-1.1228,-1.1253,-1.1235,-1.134,-1.1306,-1.1312,-1.1314,-1.1345,-1.1356,-1.1366,-1.1233,-1.1233,-1.1232,0,0,-1.1076,-1.1087,-1.1128,-1.1141,-1.1159,-1.1159,-1.1169,-1.1183,-1.1187,-1.1232,-1.1213,-1.1241,-1.129,-1.1304,-1.1317,-1.1398,-1.1381,-1.1407,-1.1451,-1.1483,-1.1492,-1.15,-1.1529,-1.1539,-1.1413,-1.1413,-1.1413,0,-1.1112,-1.1159,-1.1151,-1.1187,-1.1203,-1.1182,-1.1223,-1.1236,-1.1262,-1.1274,-1.1255,-1.1316,-1.1327,-1.1384,-1.1404,-1.1416,-1.1427,-1.1404,-1.1491,-1.15,-1.1507,-1.1534,-1.1545,-1.1416,-1.1416,-1.1416,-1.1415,0,-1.1202,-1.1235,-1.1266,-1.1292,-1.1312,-1.1351,-1.1349,-1.137,-1.1363,-1.1365,-1.1412,-1.1425,-1.1453,-1.1467,-1.1459,-1.1524,-1.1513,-1.1493,-1.1458,-1.1522,-1.1547,-1.1557,-1.142,-1.1419,-1.1419,-1.1418,0,0,-1.1297,-1.1321,-1.1332,-1.1344,-1.1364,-1.1389,-1.1428,-1.1457,-1.1475,-1.1495,-1.1527,-1.157,-1.1552,-1.1567,-1.1561,-1.159,-1.1653,-1.1566,-1.1567,-1.1581,-1.1725,-1.1739,-1.1751,-1.1643,-1.1645,-1.1647,-1.1723,0,-1.137,-1.1436,-1.1432,-1.1495,-1.1525,-1.1507,-1.1541,-1.1557,-1.1561,-1.1588,-1.1593,-1.1623,-1.1597,-1.1607,-1.1634,-1.1639,-1.1681,-1.1634,-1.1672,-1.1674,-1.1667,-1.1764,-1.1778,-1.185,-1.1733,-1.1735,-1.1736,0,-1.1462,-1.1486,-1.1552,-1.1569,-1.1581,-1.1612,-1.1638,-1.1664,-1.1683,-1.1684,-1.1703,-1.1693,-1.1732,-1.1698,-1.1753,-1.1721,-1.1737,-1.1742,-1.1745,-1.1747,-1.1707,-1.1767,-1.1872,-1.1882,-1.1751,-1.175,-1.1749,0,-1.1524,-1.1572,-1.1618,-1.163,-1.165,-1.1672,-1.1682,-1.1699,-1.1717,-1.1741,-1.1752,-1.1781,-1.1796,-1.1818,-1.1816,-1.1791,-1.1872,-1.1837,-1.1873,-1.1874,-1.1889,-1.1888,-1.1997,-1.1903,-1.1902,-1.1902,-1.1902,0,-1.1604,-1.1645,-1.1647,-1.1675,-1.1721,-1.1716,-1.1762,-1.1769,-1.1785,-1.1815,-1.1801,-1.1829,-1.1826,-1.1855,-1.1854,-1.1899,-1.1907,-1.1908,-1.1907,-1.1909,-1.1908,-1.1917,-1.1912,-1.1905,-1.1904,-1.1904,-1.1903,0,-1.168,-1.1682,-1.1731,-1.1748,-1.1753,-1.1786,-1.1801,-1.1828,-1.1832,-1.187,-1.1878,-1.1884,-1.1918,-1.1919,-1.1957,-1.1956,-1.2012,-1.2006,-1.2005,-1.2003,-1.2039,-1.2035,-1.2156,-1.2172,-1.2069,-1.207,-1.2071,0,-1.173,-1.1761,-1.1782,-1.1801,-1.1812,-1.1843,-1.1862,-1.1859,-1.1879,-1.1905,-1.1929,-1.1961,-1.1986,-1.2041,-1.2048,-1.2078,-1.2072,-1.2112,-1.2076,-1.2076,-1.2071,-1.2068,-1.2071,-1.2119,-1.212,-1.2121,-1.2121,0,-1.1818,-1.1818,-1.1846,-1.1874,-1.1897,-1.192,-1.194,-1.1957,-1.1957,-1.1981,-1.2015,-1.2035,-1.2075,-1.2107,-1.2136,-1.2146,-1.2134,-1.2134,-1.2143,-1.2144,-1.2142,-1.2142,-1.2023,-1.213,-1.2129,-1.2128,-1.2128,-1.2128,-1.1881,-1.1908,-1.1928,-1.1959,-1.1975,-1.1995,-1.2022,-1.203,-1.2058,-1.209,-1.2088,-1.2126,-1.2146,-1.2184,-1.2197,-1.2227,-1.2213,-1.2227,-1.223,-1.2233,-1.2237,-1.2139,-1.2232,-1.2232,-1.2232,-1.2232,-1.2231,0,-1.1968,-1.198,-1.2009,-1.2039,-1.2064,-1.2052,-1.2075,-1.2097,-1.2131,-1.215,-1.2176,-1.2216,-1.2248,-1.226,-1.2291,-1.2312,-1.2308,-1.232,-1.2318,-1.232,-1.2248,-1.2236,-1.2324,-1.2324,-1.2324,-1.2324,-1.2324,-1.2324,-1.2015,-1.2061,-1.2064,-1.2118,-1.213,-1.2167,-1.2181,-1.22,-1.2216,-1.2261,-1.2288,-1.2296,-1.2313,-1.2345,-1.2374,-1.2377,-1.2388,-1.2403,-1.2403,-1.2335,-1.2325,-1.2316,-1.2305,-1.2406,-1.2406,-1.2473,-1.2474,-1.2474]},{"header":{"parameterUnit":"m.s-1","parameterCategory":1,"la1":30.2991,"la2":30.254,"lo1":-89.0895,"lo2":-89.0444,"dy":0.0017,"dx":0.0017,"nx":28,"ny":28,"refTime":"2025-11-17T03:00:00:Z","depth":0,"parameterNumber":3,"parameterNumberName":"V-component_of_WINDS"},"data":[0,0,0,0,0,0,0,0,0,0,0,0,0,0,0,0,0,0,0,0,0,0,0,0,0,0,0,0,0,0,0,0,0,0,0,0,0,0,0,0,0,0,0,0,0,0,0,0,0,0,0,0,0,0,0,0,0,0,0.845,0.845,0,0.8448,0.8448,0.8448,0.8448,0.8448,0.8448,0.8448,0.8447,0.8446,0.8446,0,0,0,0,0,0,0,0,0,0,0,0,0,0.8456,0.8456,0.845,0.845,0.845,0.8448,0.8448,0.8448,0.8448,0.8448,0.8448,0.8448,0.8447,0.8447,0.8446,0,0,0,0,0,0,0,0,0,0,0,0,0,0.8454,0.8456,0.845,0.845,0.845,0.8448,0.8448,0.8448,0.8448,0.8448,0.8448,0.8448,0.8447,0.8447,0.8446,0.8445,0,0,0.8446,0.8446,0,0,0,0,0,0,0,0,0.8454,0.8454,0.845,0.845,0.845,0.8448,0.845,0.8447,0.8448,0.8449,0.8448,0.8448,0.8447,0.8447,0.8447,0.8445,0.8445,0.8446,0.8446,0.8446,0.8446,0,0,0,0,0,0,0,0.8454,0.8454,0.8449,0.845,0.845,0.8451,0.845,0.8449,0.8448,0.8449,0.8449,0.8449,0.8447,0.8447,0.8447,0.8445,0.8446,0.8446,0.8446,0.8446,0.8445,0.8445,0,0,0,0,0,0,0.8454,0.8454,0.8449,0.8449,0.8452,0.845,0.845,0.8449,0.8448,0.8448,0.8449,0.8449,0.8447,0.8447,0.8447,0.8446,0.8446,0.8446,0.8446,0.8445,0.8445,0.8445,0,0,0,0,0,0,0.8454,0.8454,0.845,0.8452,0.8451,0.845,0.8449,0.8449,0.8448,0.8448,0.8448,0.8448,0.8447,0.8447,0.8446,0.8446,0.8446,0.8446,0.8445,0.8445,0.8445,0.8445,0,0,0,0,0,0,0.8454,0.8454,0.8452,0.8452,0.8451,0.8448,0.8449,0.8449,0.8448,0.8448,0.8447,0.8447,0.8447,0.8446,0.8446,0.8446,0.8446,0.8445,0.8445,0.8445,0.8445,0.8445,0.8445,0,0,0,0,0,0.8455,0.8452,0.8452,0.8452,0.8449,0.8448,0.8448,0.8448,0.8448,0.8447,0.8447,0.8447,0.8446,0.8446,0.8446,0.8446,0.8445,0.8445,0.8445,0.8445,0.8445,0.8445,0,0,0,0,0,0,0.8452,0.8452,0.8452,0.8449,0.8449,0.8448,0.8447,0.8447,0.8447,0.8447,0.8447,0.8447,0.8446,0.8446,0.8446,0.8446,0.8446,0.8446,0.8446,0.8446,0.8446,0.8446,0.8446,0,0,0,0,0,0.8451,0.845,0.845,0.8447,0.8447,0.8447,0.8447,0.8447,0.8446,0.8446,0.8446,0.8446,0.8446,0.8446,0.8446,0.8445,0.8446,0.8445,0.8445,0.8446,0.8445,0.8447,0.8447,0.8445,0.8445,0.8445,0,0,0.8449,0.8449,0.8448,0.8447,0.8446,0.8446,0.8447,0.8446,0.8446,0.8446,0.8446,0.8446,0.8446,0.8446,0.8446,0.8446,0.8446,0.8446,0.8446,0.8445,0.8447,0.8447,0.8447,0.8445,0.8445,0.8445,0,0,0.8445,0.8445,0.8443,0.8443,0.8443,0.8444,0.8444,0.8444,0.8444,0.8444,0.8445,0.8446,0.8445,0.8446,0.8446,0.8447,0.8447,0.8447,0.8446,0.8448,0.8448,0.8448,0.8449,0.845,0.8447,0.8447,0.8447,0,0.8443,0.8441,0.8442,0.8442,0.8442,0.8443,0.8443,0.8443,0.8443,0.8444,0.8444,0.8445,0.8445,0.8446,0.8447,0.8447,0.8447,0.8446,0.8448,0.8448,0.8448,0.8449,0.845,0.8447,0.8447,0.8447,0.8447,0,0.8439,0.8438,0.8437,0.8438,0.8438,0.8437,0.8439,0.844,0.8441,0.8442,0.8443,0.8444,0.8445,0.8446,0.8446,0.8447,0.8448,0.8448,0.8448,0.8449,0.845,0.845,0.8447,0.8447,0.8447,0.8447,0,0,0.843,0.8434,0.8433,0.8435,0.8437,0.8436,0.8437,0.8439,0.844,0.8441,0.8442,0.8443,0.8444,0.8445,0.8446,0.8448,0.8449,0.8448,0.8448,0.8449,0.8453,0.8452,0.8453,0.845,0.845,0.845,0.8453,0,0.8427,0.8427,0.8429,0.8429,0.843,0.8433,0.8434,0.8436,0.8438,0.8439,0.8442,0.8443,0.8444,0.8445,0.8446,0.8449,0.845,0.8449,0.8452,0.8452,0.8451,0.8453,0.8452,0.8454,0.8453,0.8453,0.8453,0,0.8422,0.8424,0.8424,0.8428,0.8428,0.8429,0.8431,0.8433,0.8436,0.8437,0.844,0.8442,0.8444,0.8445,0.8449,0.8448,0.845,0.8452,0.8452,0.8452,0.8452,0.8453,0.8454,0.8455,0.8454,0.8454,0.8454,0,0.8417,0.8419,0.842,0.8421,0.8425,0.8426,0.8428,0.8432,0.8433,0.8436,0.8438,0.8441,0.8443,0.8446,0.845,0.845,0.8454,0.8455,0.8456,0.8456,0.8456,0.8456,0.8458,0.8458,0.8458,0.8458,0.8458,0,0.8412,0.8412,0.8418,0.8418,0.8419,0.8423,0.8425,0.8427,0.8431,0.8433,0.8436,0.8438,0.8443,0.8446,0.845,0.8454,0.8454,0.8456,0.8457,0.8456,0.8456,0.8456,0.8456,0.8458,0.8458,0.8458,0.8458,0,0.8405,0.8409,0.841,0.8416,0.8417,0.8418,0.8423,0.8424,0.8428,0.843,0.8431,0.8437,0.8441,0.8445,0.8451,0.8453,0.8457,0.8458,0.8456,0.8457,0.8458,0.8458,0.846,0.8461,0.8461,0.8461,0.8461,0,0.8402,0.8402,0.8408,0.841,0.8412,0.8414,0.8417,0.8421,0.8424,0.8429,0.8431,0.8436,0.8439,0.8447,0.8451,0.8457,0.8458,0.8459,0.8458,0.8458,0.8458,0.8458,0.8459,0.8458,0.8458,0.8458,0.8458,0,0.8395,0.8398,0.84,0.8405,0.8407,0.8411,0.8415,0.8416,0.8422,0.8425,0.843,0.8433,0.844,0.8445,0.8452,0.8455,0.8458,0.8458,0.8459,0.8457,0.8456,0.8458,0.8456,0.8458,0.8458,0.8458,0.8458,0.8458,0.839,0.8391,0.8396,0.84,0.8404,0.8408,0.841,0.8415,0.8418,0.8424,0.8428,0.8433,0.8439,0.8448,0.8452,0.8457,0.8458,0.8458,0.8458,0.8459,0.8459,0.8456,0.8458,0.8458,0.8458,0.8458,0.8458,0,0.8384,0.8388,0.8391,0.8397,0.8401,0.8404,0.8409,0.8412,0.8417,0.8422,0.8427,0.8434,0.844,0.8446,0.8453,0.8456,0.8458,0.8458,0.8457,0.8458,0.8457,0.8456,0.8456,0.8456,0.8456,0.8456,0.8456,0.8456,0.8381,0.8384,0.8388,0.8393,0.8398,0.8403,0.8406,0.841,0.8415,0.8422,0.8427,0.8432,0.8439,0.8447,0.8453,0.8455,0.8458,0.8457,0.846,0.8458,0.8458,0.8458,0.8457,0.8458,0.8458,0.8461,0.8461,0.8461]}]]